User: anonymous   Login
Location: Unspecified
(0.0000°N, 0.0000°E)
Time: 00:36:43
(UTC+00:00)
Language:

S-56A Canister/Altair - Orbit

View from above orbital plane
View from above orbital plane
View from above satellite
View from above satellite

Ground track
Ground track

The orbit data is extracted from the following two-line orbital elements,

1    82U 61004B   18345.70278135 +.00000079 +00000-0 +91883-4 0  9994
2    82 038.8647 088.7784 1176733 291.0575 056.8343 12.25998166739846
Epoch (UTC): 11 December 2018 16:52:00
Eccentricity: 0.1176733
inclination: 38.8647°
perigee height: 631 km
apogee height: 2501 km
right ascension of ascending node: 88.7784°
argument of perigee: 291.0575°
revolutions per day: 12.25998166
mean anomaly at epoch: 56.8343°
orbit number at epoch: 73984

The dashed part of the orbit path shows where the satellite is in the earth's shadow,  

DLR